[[{"header":{"parameterUnit":"m.s-1","parameterCategory":1,"la1":30.2991,"la2":30.254,"lo1":-89.0895,"lo2":-89.0444,"dy":0.0017,"dx":0.0017,"nx":28,"ny":28,"refTime":"2024-07-24T09:00:00:Z","depth":0,"parameterNumber":2,"parameterNumberName":"U-component_of_WINDS"},"data":[0,0,0,0,0,0,0,0,0,0,0,0,0,0,0,0,0,0,0,0,0,0,0,0,0,0,0,0,0,0,0,0,0,0,0,0,0,0,0,0,0,0,0,0,0,0,0,0,0,0,0,0,0,0,0,0,0,0,-0.7676,-0.7676,0,-0.7707,-0.7708,-0.7708,-0.7748,-0.7749,-0.775,-0.775,-0.7782,-0.7782,-0.7783,0,0,0,0,0,0,0,0,0,0,0,0,0,-0.7652,-0.7652,-0.7676,-0.7676,-0.7677,-0.7707,-0.7708,-0.7708,-0.7748,-0.7749,-0.775,-0.775,-0.7782,-0.7782,-0.7783,0,0,0,0,0,0,0,0,0,0,0,0,0,-0.7671,-0.7652,-0.7676,-0.77,-0.7703,-0.7707,-0.7708,-0.7708,-0.7748,-0.7749,-0.775,-0.7751,-0.7782,-0.7782,-0.7783,-0.7766,0,0,-0.7784,-0.7784,0,0,0,0,0,0,0,0,-0.7669,-0.7671,-0.7696,-0.7699,-0.7701,-0.7725,-0.7711,-0.7728,-0.7748,-0.7731,-0.775,-0.7751,-0.7762,-0.7764,-0.7768,-0.7767,-0.7769,-0.7784,-0.7784,-0.7784,-0.7784,0,0,0,0,0,0,0,-0.7668,-0.767,-0.7688,-0.7697,-0.77,-0.771,-0.7714,-0.7714,-0.7741,-0.7732,-0.7735,-0.7739,-0.7764,-0.7768,-0.7769,-0.7769,-0.7784,-0.7784,-0.7785,-0.7785,-0.7758,-0.7757,0,0,0,0,0,0,-0.7663,-0.7669,-0.7687,-0.7689,-0.7688,-0.771,-0.7714,-0.7716,-0.7741,-0.7746,-0.7738,-0.774,-0.7767,-0.7769,-0.777,-0.7753,-0.7784,-0.7785,-0.7785,-0.7759,-0.7758,-0.7757,0,0,0,0,0,0,-0.7662,-0.7664,-0.7686,-0.768,-0.7684,-0.7709,-0.7712,-0.7717,-0.772,-0.7745,-0.775,-0.7737,-0.7767,-0.777,-0.7767,-0.7755,-0.7785,-0.7785,-0.776,-0.7759,-0.7757,-0.7717,0,0,0,0,0,0,-0.7662,-0.7664,-0.7657,-0.768,-0.7684,-0.7681,-0.7711,-0.7716,-0.7721,-0.7725,-0.7745,-0.775,-0.7768,-0.7766,-0.7768,-0.7756,-0.7786,-0.7761,-0.776,-0.7758,-0.772,-0.7715,-0.7711,0,0,0,0,0,-0.7661,-0.7644,-0.7656,-0.7658,-0.7676,-0.7681,-0.7683,-0.7705,-0.772,-0.7713,-0.773,-0.7749,-0.7756,-0.7766,-0.7767,-0.7756,-0.7762,-0.776,-0.7758,-0.7722,-0.7716,-0.7711,0,0,0,0,0,0,-0.7619,-0.7647,-0.7661,-0.7652,-0.7664,-0.7687,-0.768,-0.7698,-0.7705,-0.7708,-0.7736,-0.774,-0.7734,-0.7745,-0.7755,-0.7742,-0.7762,-0.776,-0.7734,-0.7729,-0.7724,-0.7721,-0.7786,0,0,0,0,0,-0.7608,-0.761,-0.7635,-0.7624,-0.7629,-0.7654,-0.7657,-0.7673,-0.7686,-0.7691,-0.7707,-0.7719,-0.7725,-0.7728,-0.7734,-0.7723,-0.7728,-0.7716,-0.7711,-0.7707,-0.7704,-0.7701,-0.7696,-0.775,-0.775,-0.775,0,0,-0.7587,-0.7603,-0.7602,-0.7616,-0.7627,-0.7628,-0.7657,-0.7657,-0.7659,-0.7691,-0.7689,-0.7702,-0.7718,-0.7711,-0.7709,-0.772,-0.7691,-0.7704,-0.7701,-0.7701,-0.7698,-0.7693,-0.7688,-0.7749,-0.7749,-0.7749,0,0,-0.7548,-0.756,-0.7553,-0.7564,-0.7581,-0.7598,-0.7596,-0.7618,-0.7627,-0.7626,-0.7652,-0.7654,-0.7662,-0.7673,-0.7679,-0.7648,-0.7666,-0.765,-0.7624,-0.762,-0.7616,-0.7612,-0.7601,-0.7597,-0.7647,-0.7647,-0.7647,0,-0.7519,-0.7522,-0.7547,-0.7546,-0.7552,-0.7583,-0.7576,-0.7585,-0.7603,-0.7607,-0.7619,-0.7632,-0.7644,-0.7641,-0.7634,-0.7638,-0.7638,-0.7646,-0.7615,-0.7611,-0.7608,-0.7598,-0.7594,-0.7645,-0.7645,-0.7646,-0.7646,0,-0.7486,-0.7487,-0.7479,-0.7497,-0.7502,-0.7498,-0.7523,-0.7526,-0.7543,-0.7559,-0.7558,-0.7575,-0.7586,-0.7587,-0.7602,-0.7586,-0.7593,-0.7609,-0.763,-0.76,-0.7591,-0.7588,-0.7642,-0.7643,-0.7643,-0.7644,0,0,-0.7419,-0.7452,-0.7448,-0.7457,-0.748,-0.7482,-0.748,-0.7491,-0.7493,-0.7505,-0.7505,-0.7513,-0.7529,-0.7536,-0.7554,-0.7551,-0.7526,-0.7568,-0.7569,-0.756,-0.751,-0.7497,-0.7492,-0.7539,-0.7538,-0.7538,-0.7509,0,-0.7384,-0.7382,-0.7406,-0.7398,-0.7401,-0.7431,-0.743,-0.7444,-0.746,-0.7465,-0.7482,-0.7487,-0.7508,-0.7513,-0.7511,-0.7529,-0.7516,-0.7532,-0.7539,-0.7539,-0.7533,-0.7487,-0.7473,-0.7444,-0.7505,-0.7505,-0.7504,0,-0.7342,-0.7353,-0.7345,-0.7369,-0.7371,-0.737,-0.7383,-0.7387,-0.7404,-0.7416,-0.7426,-0.7447,-0.7448,-0.7469,-0.7472,-0.7482,-0.7487,-0.7496,-0.7496,-0.7497,-0.7519,-0.7486,-0.7436,-0.7431,-0.7499,-0.75,-0.75,0,-0.7294,-0.7307,-0.7304,-0.7311,-0.7339,-0.7337,-0.7349,-0.7368,-0.7373,-0.7385,-0.739,-0.7402,-0.7408,-0.7417,-0.7441,-0.7454,-0.7441,-0.7464,-0.7452,-0.7451,-0.7446,-0.7446,-0.7395,-0.745,-0.745,-0.745,-0.7451,0,-0.7252,-0.7246,-0.7283,-0.7281,-0.7276,-0.7305,-0.7299,-0.7314,-0.7331,-0.7333,-0.7361,-0.7363,-0.7395,-0.7401,-0.7421,-0.742,-0.7423,-0.7433,-0.7438,-0.743,-0.7429,-0.7433,-0.7435,-0.7449,-0.745,-0.745,-0.745,0,-0.7197,-0.7221,-0.7221,-0.7248,-0.7255,-0.725,-0.7274,-0.7275,-0.7293,-0.7296,-0.7298,-0.7327,-0.7336,-0.7361,-0.7376,-0.7389,-0.7383,-0.7393,-0.7377,-0.738,-0.7366,-0.7367,-0.7315,-0.7311,-0.7369,-0.7368,-0.7368,0,-0.7168,-0.7164,-0.7192,-0.7196,-0.7206,-0.7212,-0.7219,-0.7248,-0.7253,-0.7274,-0.7272,-0.7283,-0.7293,-0.7306,-0.7329,-0.7341,-0.7351,-0.7332,-0.7353,-0.7346,-0.7351,-0.735,-0.7351,-0.7327,-0.7326,-0.7326,-0.7325,0,-0.7114,-0.7127,-0.7135,-0.7148,-0.7155,-0.7167,-0.718,-0.7182,-0.7214,-0.722,-0.7229,-0.7237,-0.7254,-0.7265,-0.7281,-0.7294,-0.7315,-0.7319,-0.7317,-0.7308,-0.7299,-0.7304,-0.7364,-0.732,-0.732,-0.7321,-0.7321,-0.7321,-0.707,-0.7069,-0.7089,-0.7098,-0.7111,-0.7124,-0.7126,-0.7145,-0.7153,-0.7169,-0.7186,-0.7194,-0.7214,-0.7238,-0.725,-0.7257,-0.7268,-0.7265,-0.7264,-0.7262,-0.7259,-0.7299,-0.726,-0.726,-0.7261,-0.7261,-0.7261,0,-0.7018,-0.7033,-0.7041,-0.7059,-0.7066,-0.7087,-0.7103,-0.7108,-0.7115,-0.7132,-0.7142,-0.7154,-0.7165,-0.719,-0.7204,-0.7205,-0.7215,-0.7207,-0.7207,-0.721,-0.7248,-0.7248,-0.7199,-0.7199,-0.7199,-0.7199,-0.7199,-0.7199,-0.6991,-0.699,-0.7006,-0.7013,-0.7029,-0.7037,-0.7044,-0.7057,-0.707,-0.7082,-0.7092,-0.7108,-0.7129,-0.7145,-0.7157,-0.7164,-0.7168,-0.7157,-0.7167,-0.7201,-0.7207,-0.7213,-0.7213,-0.7158,-0.7158,-0.7129,-0.7129,-0.7129]},{"header":{"parameterUnit":"m.s-1","parameterCategory":1,"la1":30.2991,"la2":30.254,"lo1":-89.0895,"lo2":-89.0444,"dy":0.0017,"dx":0.0017,"nx":28,"ny":28,"refTime":"2024-07-24T09:00:00:Z","depth":0,"parameterNumber":3,"parameterNumberName":"V-component_of_WINDS"},"data":[0,0,0,0,0,0,0,0,0,0,0,0,0,0,0,0,0,0,0,0,0,0,0,0,0,0,0,0,0,0,0,0,0,0,0,0,0,0,0,0,0,0,0,0,0,0,0,0,0,0,0,0,0,0,0,0,0,0,3.184,3.184,0,3.1794,3.1793,3.1793,3.1714,3.1713,3.1712,3.171,3.1662,3.1662,3.1662,0,0,0,0,0,0,0,0,0,0,0,0,0,3.1864,3.1864,3.184,3.184,3.1839,3.1794,3.1793,3.1792,3.1715,3.1713,3.1711,3.171,3.1662,3.1662,3.1662,0,0,0,0,0,0,0,0,0,0,0,0,0,3.1839,3.1864,3.1841,3.1795,3.179,3.1794,3.1793,3.1792,3.1715,3.1713,3.1711,3.1709,3.1662,3.1662,3.1662,3.1706,0,0,3.1662,3.1662,0,0,0,0,0,0,0,0,3.1841,3.1838,3.1802,3.1798,3.1793,3.1758,3.1784,3.1763,3.1716,3.1744,3.171,3.1708,3.1696,3.1693,3.1689,3.1704,3.1702,3.1662,3.1662,3.1663,3.1663,0,0,0,0,0,0,0,3.1842,3.184,3.1822,3.1802,3.1796,3.1777,3.1771,3.1779,3.1732,3.1741,3.1735,3.1731,3.1693,3.1689,3.1687,3.1701,3.1662,3.1662,3.1663,3.1663,3.175,3.1753,0,0,0,0,0,0,3.1851,3.1842,3.1823,3.182,3.1812,3.1779,3.1772,3.1771,3.1732,3.1724,3.1733,3.1727,3.169,3.1687,3.1685,3.1733,3.1663,3.1663,3.1663,3.1748,3.1751,3.1753,0,0,0,0,0,0,3.1851,3.185,3.1825,3.183,3.1825,3.1781,3.178,3.1771,3.1767,3.1726,3.1717,3.1737,3.1688,3.1685,3.1702,3.173,3.1663,3.1663,3.1746,3.1749,3.1752,3.183,0,0,0,0,0,0,3.1852,3.1851,3.1866,3.1831,3.1825,3.1842,3.1782,3.1772,3.1768,3.176,3.1728,3.172,3.1686,3.1702,3.1702,3.1729,3.1663,3.1743,3.1747,3.1751,3.1825,3.1836,3.1845,0,0,0,0,0,3.1854,3.189,3.1867,3.1865,3.1844,3.1844,3.1841,3.1801,3.1771,3.1786,3.176,3.1721,3.1728,3.1704,3.1703,3.1731,3.1741,3.1746,3.1751,3.182,3.1833,3.1845,0,0,0,0,0,0,3.1929,3.1884,3.1859,3.1884,3.1869,3.1831,3.1849,3.1816,3.1809,3.1802,3.1753,3.1746,3.1769,3.1752,3.1726,3.1772,3.1728,3.1734,3.1781,3.1794,3.1804,3.1806,3.1663,0,0,0,0,0,3.1949,3.1953,3.1914,3.194,3.1934,3.1893,3.1892,3.1863,3.1844,3.1837,3.1812,3.1795,3.1794,3.1794,3.179,3.1824,3.1815,3.1843,3.1853,3.1862,3.1865,3.1882,3.1893,3.177,3.177,3.177,0,0,3.1989,3.1966,3.1971,3.1955,3.1939,3.1944,3.1888,3.1895,3.1899,3.1838,3.1851,3.1833,3.1812,3.1837,3.1847,3.1824,3.1898,3.1868,3.1875,3.1874,3.1888,3.19,3.191,3.1774,3.1773,3.1773,0,0,3.2065,3.2048,3.2068,3.2054,3.2031,3.2005,3.201,3.1978,3.1963,3.1976,3.1931,3.1935,3.1934,3.192,3.1913,3.1988,3.1952,3.1989,3.204,3.2057,3.2067,3.2075,3.21,3.211,3.1993,3.1994,3.1994,0,3.2117,3.2123,3.2082,3.2093,3.2087,3.2034,3.2054,3.2043,3.2021,3.2018,3.1993,3.1991,3.1973,3.1994,3.2012,3.2009,3.2013,3.199,3.2069,3.2077,3.2084,3.2107,3.2117,3.1998,3.1998,3.1997,3.1997,0,3.2188,3.2193,3.2212,3.2192,3.2189,3.2205,3.2167,3.2169,3.2142,3.2118,3.2133,3.211,3.2101,3.2105,3.2078,3.2123,3.2109,3.2078,3.2032,3.21,3.2121,3.213,3.2004,3.2003,3.2001,3.2,0,0,3.2305,3.2265,3.2272,3.2263,3.2236,3.2239,3.2253,3.2245,3.2247,3.2235,3.2245,3.2246,3.2218,3.221,3.2182,3.2197,3.2256,3.2163,3.2162,3.2179,3.2303,3.2324,3.2335,3.2234,3.2235,3.2237,3.2304,0,3.2373,3.2393,3.2358,3.2386,3.239,3.2343,3.2355,3.234,3.232,3.2321,3.2298,3.2299,3.2262,3.2257,3.227,3.2246,3.2279,3.2241,3.2241,3.2242,3.2244,3.2347,3.2369,3.2433,3.2312,3.2313,3.2314,0,3.2453,3.2445,3.2474,3.2446,3.2447,3.2458,3.2448,3.245,3.2433,3.2417,3.2411,3.2378,3.239,3.235,3.2366,3.2341,3.234,3.2328,3.233,3.2325,3.228,3.2342,3.2453,3.2462,3.2327,3.2326,3.2325,0,3.2532,3.253,3.2546,3.254,3.2509,3.2518,3.2506,3.2487,3.2485,3.2477,3.2475,3.2469,3.2465,3.2462,3.2429,3.2403,3.2449,3.2406,3.2435,3.2436,3.2443,3.2443,3.2553,3.2449,3.2448,3.2448,3.2448,0,3.2609,3.2628,3.2582,3.2591,3.2612,3.2574,3.2595,3.2578,3.2562,3.2569,3.2529,3.2535,3.2493,3.2495,3.247,3.2487,3.2486,3.2473,3.2466,3.2475,3.2476,3.2471,3.2464,3.2451,3.245,3.245,3.2449,0,3.2699,3.2669,3.2684,3.2655,3.2648,3.2664,3.2639,3.2647,3.2626,3.2635,3.2635,3.2601,3.2602,3.257,3.2565,3.2548,3.2575,3.2561,3.258,3.2575,3.2605,3.2602,3.2712,3.2725,3.2616,3.2617,3.2618,0,3.2748,3.2761,3.2734,3.2736,3.2726,3.2729,3.2726,3.2691,3.269,3.2674,3.2684,3.2683,3.2678,3.2683,3.2658,3.2654,3.2638,3.2678,3.2637,3.2646,3.2636,3.2634,3.2635,3.2685,3.2686,3.2687,3.2688,0,3.2838,3.2823,3.2821,3.2815,3.2814,3.2807,3.2798,3.2802,3.2763,3.2765,3.2766,3.2764,3.2759,3.2758,3.275,3.2737,3.2706,3.2702,3.2708,3.2716,3.2725,3.2719,3.26,3.2698,3.2697,3.2697,3.2696,3.2696,3.2906,3.2916,3.2899,3.2899,3.2889,3.2882,3.2889,3.2869,3.287,3.2863,3.2843,3.2848,3.2832,3.2819,3.281,3.2813,3.2794,3.2803,3.2805,3.2807,3.2812,3.2728,3.2812,3.2812,3.2811,3.2811,3.2811,0,3.2992,3.2979,3.298,3.2969,3.297,3.2943,3.2932,3.2934,3.2939,3.2928,3.2925,3.2927,3.2927,3.2904,3.29,3.2907,3.2893,3.2907,3.2905,3.2902,3.283,3.2824,3.2919,3.2919,3.2919,3.2919,3.2919,3.2919,3.3036,3.3051,3.3035,3.3046,3.3033,3.3037,3.3033,3.3027,3.3018,3.3022,3.3022,3.3007,3.2991,3.2987,3.2986,3.2979,3.2978,3.2997,3.2986,3.2918,3.2907,3.2897,3.2891,3.2998,3.2998,3.3057,3.3057,3.3058]}]]